TimeCDT,TemperatureF,Dew PointF,Humidity,Sea Level PressureIn,VisibilityMPH,Wind Direction,Wind SpeedMPH,Gust SpeedMPH,PrecipitationIn,Events,Conditions,WindDirDegrees,DateUTC
12:40 AM,71.6,69.8,94,29.88,10.0,West,5.8,-,0.03,,Partly Cloudy,270,2013-07-13 05:40:00
12:53 AM,73.0,69.1,87,29.88,10.0,WNW,3.5,-,0.03,,Clear,290,2013-07-13 05:53:00
1:53 AM,72.0,68.0,87,29.89,10.0,NNE,5.8,-,N/A,,Clear,20,2013-07-13 06:53:00
2:53 AM,72.0,68.0,87,29.90,10.0,East,3.5,-,N/A,,Clear,100,2013-07-13 07:53:00
3:53 AM,73.0,70.0,90,29.89,10.0,Calm,Calm,-,N/A,,Clear,0,2013-07-13 08:53:00
4:53 AM,73.0,70.0,90,29.88,10.0,East,3.5,-,N/A,,Clear,100,2013-07-13 09:53:00
5:53 AM,73.0,70.0,90,29.90,10.0,Calm,Calm,-,N/A,,Clear,0,2013-07-13 10:53:00
6:53 AM,75.0,71.1,87,29.90,10.0,Calm,Calm,-,N/A,,Partly Cloudy,0,2013-07-13 11:53:00
7:53 AM,79.0,73.9,84,29.92,10.0,Calm,Calm,-,N/A,,Clear,0,2013-07-13 12:53:00
8:53 AM,81.0,75.0,82,29.93,10.0,Calm,Calm,-,N/A,,Clear,0,2013-07-13 13:53:00
9:38 AM,82.4,73.4,74,29.93,10.0,Calm,Calm,-,N/A,,Mostly Cloudy,0,2013-07-13 14:38:00
9:53 AM,82.0,75.0,79,29.94,10.0,East,4.6,-,N/A,,Mostly Cloudy,100,2013-07-13 14:53:00
10:22 AM,84.2,75.2,74,29.94,10.0,Variable,4.6,-,N/A,,Scattered Clouds,0,2013-07-13 15:22:00
10:53 AM,86.0,75.0,70,29.94,10.0,SE,5.8,-,N/A,,Scattered Clouds,140,2013-07-13 15:53:00
11:53 AM,82.9,75.0,77,29.94,10.0,SSE,9.2,-,N/A,,Clear,160,2013-07-13 16:53:00
12:53 PM,84.9,73.9,69,29.93,10.0,South,11.5,-,N/A,Thunderstorm,Thunderstorm,170,2013-07-13 17:53:00
1:53 PM,82.9,73.0,72,29.96,10.0,SW,8.1,-,0.00,Thunderstorm,Thunderstorm,220,2013-07-13 18:53:00
2:10 PM,77.0,71.6,83,29.93,10.0,West,13.8,-,0.00,Rain-Thunderstorm,Light Thunderstorms and Rain,270,2013-07-13 19:10:00
2:19 PM,75.2,69.8,83,29.91,2.0,West,4.6,-,0.01,Rain-Thunderstorm,Thunderstorms and Rain,260,2013-07-13 19:19:00
2:34 PM,75.2,69.8,83,29.93,8.0,Calm,Calm,-,0.06,Rain-Thunderstorm,Light Thunderstorms and Rain,0,2013-07-13 19:34:00
2:53 PM,75.9,71.1,85,29.95,10.0,West,6.9,-,0.06,Thunderstorm,Thunderstorm,260,2013-07-13 19:53:00
3:53 PM,77.0,71.1,82,29.90,10.0,ESE,4.6,-,N/A,,Mostly Cloudy,110,2013-07-13 20:53:00
4:50 PM,75.2,66.2,73,29.92,10.0,North,4.6,-,N/A,,Mostly Cloudy,360,2013-07-13 21:50:00
4:53 PM,75.9,66.9,74,29.92,10.0,North,4.6,-,N/A,,Scattered Clouds,350,2013-07-13 21:53:00
5:53 PM,77.0,69.1,76,29.91,10.0,WNW,3.5,-,N/A,,Mostly Cloudy,300,2013-07-13 22:53:00
6:00 PM,78.8,69.8,74,29.90,10.0,WNW,4.6,-,N/A,,Mostly Cloudy,290,2013-07-13 23:00:00
6:53 PM,81.0,70.0,69,29.92,10.0,Calm,Calm,-,N/A,,Clear,0,2013-07-13 23:53:00
7:53 PM,75.9,70.0,82,29.93,10.0,NNE,3.5,-,N/A,,Clear,20,2013-07-14 00:53:00
8:53 PM,75.9,71.1,85,29.93,10.0,East,8.1,-,N/A,,Clear,80,2013-07-14 01:53:00
9:53 PM,75.9,72.0,87,29.96,10.0,Calm,Calm,-,N/A,,Clear,0,2013-07-14 02:53:00
10:45 PM,75.2,71.6,89,29.98,10.0,ENE,6.9,-,N/A,,Mostly Cloudy,60,2013-07-14 03:45:00
10:53 PM,75.9,71.1,85,29.99,10.0,ENE,9.2,-,N/A,,Overcast,70,2013-07-14 03:53:00
11:41 PM,75.2,69.8,83,29.98,10.0,East,5.8,-,N/A,,Mostly Cloudy,90,2013-07-14 04:41:00
11:53 PM,75.0,69.1,82,29.99,10.0,NE,4.6,-,N/A,,Mostly Cloudy,50,2013-07-14 04:53:00